This is the latest recevied weather packets stored in our database for station/object N6HGA-1. If no packets are shown the sender has not sent any weather packets the latest 10 day(s).
| Time | Temp. | Humidity | Pressure | Rain* | Wind** | Luminosity | Snow |
|---|---|---|---|---|---|---|---|
| 1777421337 | 22.78° C | 44% | - | 0 mm | - | - | - |
| 1777420735 | 23.33° C | 43% | - | 0 mm | - | - | - |
| 1777420435 | 23.33° C | 45% | - | 0 mm | - | - | - |
| 1777420135 | 23.33° C | 43% | - | 0 mm | - | - | - |
| 1777419835 | 23.89° C | 47% | - | 0 mm | - | - | - |
| 1777418633 | 23.33° C | 39% | - | 0 mm | - | - | - |
| 1777418333 | 23.33° C | 40% | - | 0 mm | - | - | - |
| 1777417731 | 22.78° C | 54% | - | 0 mm | - | - | - |
| 1777417430 | 22.22° C | 55% | - | 0 mm | - | - | - |
| 1777416829 | 21.67° C | 53% | - | 0 mm | - | - | - |
| 1777416528 | 21.67° C | 52% | - | 0 mm | - | - | - |
| 1777416227 | 22.22° C | 51% | - | 0 mm | - | - | - |
| 1777415927 | 21.67° C | 47% | - | 0 mm | - | - | - |
| 1777415627 | 21.67° C | 44% | - | 0 mm | - | - | - |
| 1777415026 | 21.67° C | 35% | - | 0 mm | - | - | - |
| 1777414124 | 21.11° C | 35% | - | 0 mm | - | - | - |
| 1777413823 | 21.11° C | 35% | - | 0 mm | - | - | - |
| 1777413525 | 21.67° C | 35% | - | 0 mm | - | - | - |
| 1777413223 | 21.67° C | 34% | - | 0 mm | - | - | - |
| 1777412020 | 21.11° C | 36% | - | 0 mm | - | - | - |
| 1777411719 | 20.56° C | 38% | - | 0 mm | - | - | - |
| 1777411419 | 20.56° C | 40% | - | 0 mm | - | - | - |
| 1777411119 | 20° C | 38% | - | 0 mm | - | - | - |
| 1777410819 | 20° C | 38% | - | 0 mm | - | - | - |
| 1777410518 | 20° C | 39% | - | 0 mm | - | - | - |
* Rain since midnight (hover to see other rain measurements)
** Current wind speed in m/s (hover to see current wind gust speed)